Location: *
(28.3744°N, 81.5492°W)
Time: 03:18:53
(UTC+00:00)

YAOGAN 11 - Pass Details

Date: 15 June 2025
Orbit: 602 x 649 km, 98.4° (Epoch: 11 July)

Event Time Altitude Azimuth Distance (km) Brightness Sun altitude
Rises 00:42:24 0° 11° (N) 2,958 7.8 -4.2°
Reaches altitude 10° 00:44:36 10° 11° (N) 2,049 7.0 -4.7°
Maximum altitude 00:49:05 84° 284° (WNW) 657 4.3 -5.5°
Drops below altitude 10° 00:53:33 10° 196° (SSW) 2,042 6.6 -6.4°
Sets 00:55:45 0° 195° (SSW) 2,948 7.4 -6.8°
